Location: La Pernelle
(49.6188°N, 1.2999°W)
Time: 10:30:24
(UTC+00:00)

Cosmos 1980 Rocket - Pass Details

Date: 12 June 2021
Orbit: 830 x 848 km, 71.0° (Epoch: 27 July)

Event Time Altitude Azimuth Distance (km) Brightness Sun altitude
Rises 21:20:43 0° 218° (SW) 3,383 5.2 -8.5°
Reaches altitude 10° 21:23:12 10° 222° (SW) 2,450 4.5 -8.8°
Maximum altitude 21:28:45 61° 303° (WNW) 947 2.8 -9.3°
Drops below altitude 10° 21:34:20 10° 24° (NNE) 2,454 5.1 -9.8°
Sets 21:36:49 0° 28° (NNE) 3,389 5.7 -10.1°
